Weather History for KNUW - November, 2013

Change the Weather History Date:

Sunday, November 10, 2013

  Actual Average Record
Temperature  
Mean Temperature 48 °F -  
Max Temperature 51 °F 50 °F 60 °F (1997)
Min Temperature 46 °F 38 °F 26 °F (2012)
Degree Days  
Heating Degree Days 16    
Moisture  
Dew Point 43 °F    
Average Humidity 80    
Maximum Humidity 87    
Minimum Humidity 71    
Precipitation  
Precipitation 0.01 in - - ()
Sea Level Pressure  
Sea Level Pressure 30.16 in    
Wind  
Wind Speed 2 mph (North)    
Max Wind Speed 9 mph    
Max Gust Speed -    
Visibility 10 miles    
Events Rain    
Averages and records for this station are not official NWS values.
T = Trace of Precipitation, MM = Missing Value Source: NWS Daily Summary

Daily Weather History Graph

Daily Weather History Graph

Search for Another Location

Airport or City:

Trip Planner

Search our weather history database for the weather conditions in past years. The results will help you decide how hot, cold, wet, or windy it might be!

Date:

Astronomy

Nov. 10, 2013 Rise Set
Actual Time 7:10 AM PST 4:37 PM PST
Civil Twilight 6:37 AM PST 5:11 PM PST
Nautical Twilight 5:59 AM PST 5:48 PM PST
Astronomical Twilight 5:22 AM PST 6:25 PM PST
Moon 1:16 PM PST (11/10) No Moon Set
Length of Visible Light 10h 34m
Length of Day
9h 26m
First Quarter, 56% of the Moon is Illuminated
Nov 10
First Quarter
Nov 17
Full
Nov 25
Last Quarter
Dec 2
New
Dec 9
First Quarter

Hourly Weather History & Observations

Time (PST) Temp. Dew Point Humidity Pressure Visibility Wind Dir Wind Speed Gust Speed Precip Events Conditions
12:33 AM 46.4 °F 42.8 °F 87% 30.14 in 10.0 mi Calm Calm - 0.00 in Rain Light Rain
12:56 AM 46.0 °F 42.1 °F 86% 30.15 in 10.0 mi Calm Calm - 0.00 in Rain Light Rain
1:56 AM 46.0 °F 42.1 °F 86% 30.15 in 10.0 mi Calm Calm - 0.00 in Rain Light Rain
2:56 AM 46.9 °F 43.0 °F 86% 30.14 in 10.0 mi ESE 4.6 mph - 0.00 in Rain Light Rain
3:29 AM 48.2 °F 42.8 °F 82% 30.13 in 10.0 mi Calm Calm - 0.00 in   Overcast
3:56 AM 48.0 °F 43.0 °F 83% 30.15 in 10.0 mi Calm Calm - 0.00 in   Overcast
4:56 AM 48.0 °F 43.0 °F 83% 30.14 in 10.0 mi Calm Calm - N/A   Overcast
5:56 AM 48.0 °F 43.0 °F 83% 30.16 in 10.0 mi Calm Calm - N/A   Overcast
6:56 AM 46.9 °F 42.1 °F 83% 30.16 in 10.0 mi Calm Calm - N/A   Overcast
7:56 AM 46.9 °F 42.1 °F 83% 30.16 in 10.0 mi Calm Calm - N/A   Overcast
8:56 AM 48.9 °F 43.0 °F 80% 30.18 in 10.0 mi WNW 3.5 mph - N/A   Overcast
9:28 AM 50.0 °F 42.8 °F 76% 30.16 in 10.0 mi NNE 4.6 mph - 0.00 in Rain Light Rain
9:56 AM 50.0 °F 43.0 °F 77% 30.18 in 10.0 mi North 4.6 mph - 0.00 in   Overcast
10:48 AM 50.0 °F 42.8 °F 76% 30.18 in 10.0 mi North 9.2 mph - 0.00 in Rain Light Rain
10:56 AM 50.0 °F 42.1 °F 74% 30.19 in 10.0 mi North 6.9 mph - 0.00 in Rain Light Rain
11:56 AM 51.1 °F 43.0 °F 74% 30.18 in 10.0 mi Calm Calm - 0.00 in Rain Light Rain
12:56 PM 51.1 °F 42.1 °F 71% 30.17 in 10.0 mi North 3.5 mph - 0.00 in   Overcast
1:56 PM 51.1 °F 43.0 °F 74% 30.18 in 10.0 mi NNW 5.8 mph - N/A   Overcast
2:41 PM 51.8 °F 42.8 °F 71% 30.16 in 10.0 mi North 4.6 mph - 0.00 in Rain Light Rain
2:56 PM 51.1 °F 43.0 °F 74% 30.17 in 10.0 mi North 3.5 mph - 0.00 in Rain Light Rain
3:40 PM 50.0 °F 42.8 °F 76% 30.16 in 10.0 mi NNW 4.6 mph - 0.01 in   Overcast
3:56 PM 50.0 °F 43.0 °F 77% 30.17 in 10.0 mi North 4.6 mph - 0.01 in   Overcast
4:56 PM 48.9 °F 43.0 °F 80% 30.17 in 10.0 mi North 4.6 mph - N/A   Overcast
5:56 PM 48.9 °F 42.1 °F 77% 30.17 in 7.0 mi North 3.5 mph - N/A   Overcast
6:56 PM 48.0 °F 42.1 °F 80% 30.18 in 10.0 mi Calm Calm - N/A   Overcast
7:56 PM 46.9 °F 42.1 °F 83% 30.17 in 10.0 mi Calm Calm - N/A   Overcast
8:56 PM 46.9 °F 42.1 °F 83% 30.17 in 10.0 mi SE 3.5 mph - N/A   Mostly Cloudy
9:56 PM 48.0 °F 43.0 °F 83% 30.17 in 10.0 mi Calm Calm - N/A   Mostly Cloudy
10:56 PM 48.9 °F 42.1 °F 77% 30.17 in 10.0 mi Calm Calm - N/A   Overcast
11:56 PM 48.9 °F 44.1 °F 83% 30.17 in 10.0 mi Calm Calm - N/A   Overcast